Overview Statistics Trail Chart Weather Telemetry Raw packets
 

This is the latest recevied weather packets stored in our database for station/object DL4MGC-10. If no packets are shown the sender has not sent any weather packets the latest 10 day(s).

<< 17 18 19 20 21 22 23 >>
Time Temp. Humidity Pressure Rain* Wind** Luminosity Snow
1788290822 19.44° C 75% 1021.5 hPa - - - -
1788289921 20° C 76% 1021.5 hPa - - - -
1788289021 20.56° C 75% 1021.2 hPa - - - -
1788288121 21.11° C 75% 1021 hPa - - - -
1788287221 21.11° C 73% 1021 hPa - - - -
1788286321 21.67° C 70% 1020.8 hPa - - - -
1788285421 22.22° C 67% 1020.6 hPa - - - -
1788284521 22.22° C 64% 1020.5 hPa - - - -
1788283621 23.33° C 59% 1020.5 hPa - - - -
1788282720 23.89° C 57% 1020.6 hPa - - - -
1788281820 24.44° C 56% 1020.6 hPa - - - -
1788280920 25° C 56% 1020.7 hPa - - - -
1788280020 25.56° C 54% 1020.7 hPa - - - -
1788279120 26.11° C 54% 1020.7 hPa - - - -
1788278220 25° C 55% 1020.6 hPa - - - -
1788277320 26.11° C 53% 1020.6 hPa - - - -
1788276420 26.11° C 52% 1020.6 hPa - - - -
1788275520 26.11° C 52% 1020.6 hPa - - - -
1788274619 25.56° C 56% 1020.7 hPa - - - -
1788273719 26.11° C 57% 1020.6 hPa - - - -
1788272819 26.67° C 55% 1020.8 hPa - - - -
1788271919 25.56° C 56% 1020.7 hPa - - - -
1788271019 27.22° C 56% 1020.8 hPa - - - -
1788270119 26.67° C 56% 1020.9 hPa - - - -
1788269219 25° C 56% 1021 hPa - - - -

* Rain since midnight (hover to see other rain measurements)
** Current wind speed in m/s (hover to see current wind gust speed)